Date String (YYYY-MM-DD hh:mm:ss) UTC,Instrument flags,Ambient pressure (hPa),Sample flow (lpm),Bypass flow (lpm),Sample temperature (°C),Ambient temperature (°C),ASC tube jacket temperature (°C),LED temperature (°C),Box temperature (°C),Sample RH (%),Span deviation,Mass concentration (μg/m³),Mass concentration (μg/m³),Mass concentration (μg/m³)
DateTimeUTC,F1_M11,P_M11,Q1_M11,Q2_M11,T1_M11,T2_M11,T3_M11,T4_M11,T5_M11,U1_M11,ZSPAN_M11,X0_M11,X2_M11,X1_M11
2022-10-08 20:00:00,,0834.1,4.99,0.00,29.9,28.8,00.0,38.5,31.8,15.2,-001.0,0014.88,0010.33,0009.65
2022-10-08 20:01:00,,0834.1,5.01,0.00,29.9,28.8,00.0,38.5,31.7,15.1,-001.1,0014.83,0010.28,0009.60
2022-10-08 20:02:00,,0834.1,4.99,0.00,29.9,28.8,00.0,38.6,31.7,14.4,-001.2,0014.59,0010.13,0009.49
2022-10-08 20:03:00,,0834.1,5.00,0.00,29.9,28.8,00.0,38.6,31.8,13.7,-001.0,0014.23,0009.92,0009.30
2022-10-08 20:04:00,,0834.0,4.99,0.00,30.0,28.9,00.0,38.6,31.8,14.3,-001.0,0013.93,0009.70,0009.11
2022-10-08 20:05:00,,0834.1,5.01,0.00,30.0,28.9,00.0,38.6,31.9,14.8,-001.0,0013.92,0009.53,0008.94
2022-10-08 20:06:00,,0834.0,4.99,0.00,30.0,28.9,00.0,38.6,31.9,15.2,-000.8,0013.98,0009.48,0008.87
2022-10-08 20:07:00,,0834.1,5.01,0.00,30.0,28.9,00.0,38.6,31.9,15.1,-000.8,0013.88,0009.39,0008.80
2022-10-08 20:08:00,,0834.0,4.99,0.00,30.0,28.9,00.0,38.7,31.9,15.1,-000.5,0014.02,0009.26,0008.68
2022-10-08 20:09:00,,0834.1,5.01,0.00,30.0,28.9,00.0,38.7,31.9,14.9,-000.3,0013.46,0009.11,0008.54
2022-10-08 20:10:00,,0834.0,4.99,0.00,30.0,28.9,00.0,38.7,31.9,15.1,-000.2,0013.02,0008.91,0008.38
2022-10-08 20:11:00,,0834.0,5.01,0.00,30.0,28.9,00.0,38.7,31.9,15.5,-000.1,0013.52,0008.84,0008.33
2022-10-08 20:12:00,,0834.0,4.99,0.00,30.1,29.0,00.0,38.7,31.9,16.1,0000.1,0013.63,0008.80,0008.31
2022-10-08 20:13:00,,0834.0,5.01,0.00,30.1,29.0,00.0,38.7,31.9,16.2,0000.3,0013.78,0008.88,0008.35
2022-10-08 20:14:00,,0834.0,4.99,0.00,30.1,29.0,00.0,38.7,32.0,16.0,-000.0,0013.82,0008.95,0008.44
2022-10-08 20:15:00,,0833.9,5.00,0.00,30.1,29.1,00.0,38.8,32.0,16.1,-000.3,0014.00,0009.05,0008.53
2022-10-08 20:16:00,,0833.9,5.01,0.00,30.1,29.1,00.0,38.8,32.0,16.8,-000.3,0013.80,0009.10,0008.59
2022-10-08 20:17:00,,0833.9,4.98,0.00,30.1,29.1,00.0,38.8,32.0,16.8,-000.2,0013.67,0009.13,0008.64
2022-10-08 20:18:00,,0833.9,5.01,0.00,30.2,29.1,00.0,38.8,32.0,16.7,-000.1,0014.38,0009.24,0008.72
2022-10-08 20:19:00,,0833.9,5.00,0.00,30.2,29.1,00.0,38.8,32.0,16.8,-000.3,0014.49,0009.33,0008.79
2022-10-08 20:20:00,,0833.9,5.00,0.00,30.2,29.1,00.0,38.8,32.1,16.8,-000.3,0014.46,0009.46,0008.89
2022-10-08 20:21:00,,0833.8,5.01,0.00,30.2,29.2,00.0,38.9,32.1,17.0,-000.5,0014.92,0009.58,0009.00
2022-10-08 20:22:00,,0833.9,5.01,0.00,30.2,29.2,00.0,38.9,32.1,17.0,-000.7,0014.36,0009.64,0009.06
2022-10-08 20:23:00,,0833.9,4.98,0.00,30.2,29.2,00.0,38.9,32.1,16.7,-000.9,0014.12,0009.67,0009.10
2022-10-08 20:24:00,,0833.8,5.01,0.00,30.3,29.2,00.0,38.9,32.1,17.0,-000.9,0014.37,0009.69,0009.11
2022-10-08 20:25:00,,0833.8,5.01,0.00,30.3,29.2,00.0,38.9,32.1,16.3,-000.8,0014.53,0009.69,0009.11
2022-10-08 20:26:00,,0833.8,4.99,0.00,30.3,29.2,00.0,38.9,32.1,15.9,-000.5,0015.09,0009.71,0009.11
2022-10-08 20:27:00,,0833.8,5.00,0.00,30.3,29.2,00.0,38.9,32.1,16.0,-000.7,0015.13,0009.73,0009.12
2022-10-08 20:28:00,,0833.8,5.01,0.00,30.3,29.2,00.0,39.0,32.1,16.2,-000.8,0015.29,0009.77,0009.11
2022-10-08 20:29:00,,0833.7,4.98,0.00,30.3,29.2,00.0,39.0,32.1,16.2,-000.7,0015.08,0009.76,0009.11
2022-10-08 20:30:00,,0833.7,5.01,0.00,30.3,29.2,00.0,39.0,32.1,16.2,-000.5,0015.02,0009.75,0009.13
2022-10-08 20:31:00,,0833.7,5.00,0.00,30.3,29.2,00.0,39.0,32.1,16.1,-000.4,0015.17,0009.77,0009.13
2022-10-08 20:32:00,,0833.7,5.00,0.00,30.3,29.3,00.0,39.0,32.2,16.0,-000.4,0015.30,0009.74,0009.12
2022-10-08 20:33:00,,0833.7,5.00,0.00,30.4,29.3,00.0,39.0,32.2,15.8,-000.3,0015.23,0009.76,0009.11
2022-10-08 20:34:00,,0833.7,5.01,0.00,30.4,29.3,00.0,39.0,32.2,15.3,-000.2,0015.35,0009.75,0009.10
2022-10-08 20:35:00,,0833.7,5.01,0.00,30.4,29.3,00.0,39.0,32.2,15.4,-000.3,0015.07,0009.69,0009.05
2022-10-08 20:36:00,,0833.7,4.99,0.00,30.4,29.3,00.0,39.0,32.2,15.5,-000.2,0015.17,0009.70,0009.04
2022-10-08 20:37:00,,0833.7,5.00,0.00,30.4,29.3,00.0,39.1,32.2,15.4,-000.3,0014.76,0009.66,0009.02
2022-10-08 20:38:00,,0833.7,5.00,0.00,30.4,29.3,00.0,39.1,32.3,15.4,-000.1,0014.69,0009.60,0008.97
2022-10-08 20:39:00,,0833.7,4.99,0.00,30.4,29.4,00.0,39.1,32.3,15.7,-000.0,0014.62,0009.48,0008.88
2022-10-08 20:40:00,,0833.7,4.99,0.00,30.4,29.4,00.0,39.1,32.3,15.5,0000.0,0014.31,0009.33,0008.74
2022-10-08 20:41:00,,0833.6,5.02,0.00,30.5,29.4,00.0,39.1,32.3,15.0,-000.1,0013.65,0009.15,0008.58
2022-10-08 20:42:00,,0833.7,5.01,0.00,30.5,29.4,00.0,39.1,32.3,15.6,-000.1,0013.28,0009.00,0008.47
2022-10-08 20:43:00,,0833.6,5.00,0.00,30.5,29.4,00.0,39.2,32.3,15.1,0000.1,0012.79,0008.91,0008.37
2022-10-08 20:44:00,,0833.6,5.00,0.00,30.5,29.3,00.0,39.2,32.3,14.8,0000.2,0012.72,0008.81,0008.28
2022-10-08 20:45:00,,0833.6,5.01,0.00,30.5,29.3,00.0,39.2,32.3,15.0,0000.3,0012.56,0008.74,0008.19
2022-10-08 20:46:00,,0833.6,5.00,0.00,30.5,29.4,00.0,39.2,32.3,15.3,0000.4,0012.65,0008.72,0008.15
2022-10-08 20:47:00,,0833.6,5.00,0.00,30.5,29.4,00.0,39.2,32.4,15.3,0000.2,0012.48,0008.68,0008.11
2022-10-08 20:48:00,,0833.6,5.00,0.00,30.5,29.4,00.0,39.2,32.4,15.5,0000.2,0012.30,0008.66,0008.09
2022-10-08 20:49:00,,0833.6,5.01,0.00,30.5,29.4,00.0,39.2,32.4,15.4,0000.2,0012.37,0008.70,0008.11
2022-10-08 20:50:00,,0833.6,4.99,0.00,30.6,29.4,00.0,39.2,32.4,15.3,-000.1,0012.26,0008.72,0008.15
2022-10-08 20:51:00,,0833.6,5.01,0.00,30.6,29.5,00.0,39.2,32.4,15.6,-000.2,0012.39,0008.78,0008.20
2022-10-08 20:52:00,,0833.6,5.00,0.00,30.6,29.5,00.0,39.3,32.4,15.4,0000.3,0012.53,0008.88,0008.30
2022-10-08 20:53:00,,0833.6,4.99,0.00,30.6,29.0,00.0,39.3,32.4,15.4,0000.3,0013.07,0008.96,0008.36
2022-10-08 20:54:00,,0833.6,5.01,0.00,30.5,27.4,00.0,39.2,32.1,15.2,0000.1,0013.71,0008.99,0008.40
2022-10-08 20:55:00,,0833.6,5.02,0.00,30.5,26.7,00.0,39.2,32.0,15.5,0000.2,0014.50,0009.02,0008.43
2022-10-08 20:56:00,,0833.6,5.00,0.00,30.4,26.9,00.0,39.1,31.9,15.5,0000.1,0014.56,0009.06,0008.45
2022-10-08 20:57:00,,0833.5,5.00,0.00,30.3,27.2,00.0,39.1,31.8,15.4,-000.1,0014.33,0009.03,0008.44
2022-10-08 20:58:00,,0833.6,5.00,0.00,30.2,27.5,00.0,39.0,31.8,15.3,-000.0,0014.10,0008.96,0008.42
2022-10-08 20:59:00,,0833.5,5.01,0.00,30.2,27.8,00.0,39.0,31.8,15.4,-000.2,0014.03,0008.90,0008.36
